Location: Borgo
(42.3939°N, 9.2791°E)
Time: 18:55:23
(UTC+00:00)

Cosmos 1680 Rocket - Pass Details

Date: 24 January 2021
Orbit: 761 x 780 km, 74.1° (Epoch: 02 March)

Event Time Altitude Azimuth Distance (km) Brightness Sun altitude
Rises 17:34:51 0° 342° (NNW) 3,244 6.8 -12.7°
Reaches altitude 10° 17:37:16 10° 346° (NNW) 2,311 6.0 -13.1°
Maximum altitude 17:42:28 65° 68° (ENE) 840 3.4 -14.0°
Drops below altitude 10° 17:47:37 10° 150° (SSE) 2,287 5.8 -14.9°
Sets 17:50:00 0° 153° (SSE) 3,207 6.6 -15.4°
